Nassau, Bahamas

8:29 PM EDT on April 25, 2018 (GMT -0400)
Nassau International

Weather History for MYNN - December, 2014

Change the Weather History Date:

Monday, December 8, 2014

  Actual Average Record
Temperature  
Mean Temperature 76 °F -  
Max Temperature 81 °F 78 °F 86 °F (2017)
Min Temperature 69 °F 63 °F 35 °F (2002)
Cooling Degree Days 10    
Growing Degree Days 26 (Base 50)    
Moisture  
Dew Point 65 °F    
Average Humidity 72    
Maximum Humidity 83    
Minimum Humidity 54    
Precipitation  
Precipitation 0.00 in 0.07 in - ()
Sea Level Pressure  
Sea Level Pressure 30.00 in    
Wind  
Wind Speed 5 mph ()    
Max Wind Speed 9 mph    
Max Gust Speed -    
Visibility 6.9 miles    
Events      
Averages and records for this station are not official NWS values.
T = Trace of Precipitation, MM = Missing Value Source: Averaged Metar Reports

Daily Weather History Graph

Daily Weather History Graph

Search for Another Location

Airport or City:

Astronomy

Dec. 08, 2014 Rise Set
Actual Time 6:42 AM EST 5:20 PM EST
Civil Twilight 6:17 AM EST 5:45 PM EST
Nautical Twilight 5:49 AM EST 6:14 PM EST
Astronomical Twilight 5:21 AM EST 6:41 PM EST
Moon 7:34 PM EST (12/8) 8:19 AM EST (12/8)
Length of Visible Light 11h 27m
Length of Day
10h 37m
Waning Gibbous, 95% of the Moon is Illuminated
Dec 8
Waning Gibbous
Dec 14
Last Quarter
Dec 21
New
Dec 28
First Quarter
Jan 4
Full

Hourly Weather History & Observations

Time (EST) Temp. Heat Index Dew Point Humidity Pressure Visibility Wind Dir Wind Speed Gust Speed Precip Events Conditions
12:00 AM 73.4 °F - 64.4 °F 73% 30.00 in 6.2 mi North 9.2 mph - N/A   Scattered Clouds
1:00 AM 74 °F - 68 °F 76% 30.01 in 9 mi NNE 8.1 mph - -   Scattered Clouds
1:00 AM 73.4 °F - 68.0 °F 83% 30.00 in 6.2 mi NNE 8.1 mph - N/A   Partly Cloudy
6:00 AM 73.4 °F - 68.0 °F 83% 29.99 in 6.2 mi NNE 3.5 mph - N/A   Partly Cloudy
7:00 AM 72 °F - 65 °F 74% 30.00 in 9 mi 1.2 mph - -   Scattered Clouds
7:00 AM 71.6 °F - 66.2 °F 83% 30.00 in 6.2 mi Variable 2.3 mph - N/A   Partly Cloudy
10:00 AM 78.8 °F - 66.2 °F 65% 30.05 in 6.2 mi North 8.1 mph - N/A   Partly Cloudy
11:00 AM 77.0 °F - 62.6 °F 61% 30.04 in 6.2 mi NNW 4.6 mph - N/A   Partly Cloudy
2:00 PM 78.8 °F - 60.8 °F 54% 29.97 in 6.2 mi NNW 4.6 mph - N/A   Partly Cloudy
3:00 PM 77.0 °F - 60.8 °F 57% 29.97 in 6.2 mi North 6.9 mph - N/A   Partly Cloudy
4:00 PM 80 °F - - % 29.98 in 9 mi NNW 4.6 mph - -  
4:00 PM 80.6 °F 83.2 °F 68.0 °F 65% 29.97 in 6.2 mi NNW 4.6 mph - N/A   Partly Cloudy
5:00 PM 75.2 °F - 60.8 °F 61% 29.98 in 6.2 mi NNW 4.6 mph - N/A   Partly Cloudy
6:00 PM 75.2 °F - 62.6 °F 65% 29.98 in 6.2 mi NW 4.6 mph - N/A   Partly Cloudy
7:00 PM 74 °F - 68 °F 75% 29.99 in 9 mi NNW 4.6 mph - -   Scattered Clouds
7:00 PM 73.4 °F - 68.0 °F 83% 29.98 in 6.2 mi NNW 4.6 mph - N/A   Partly Cloudy
8:00 PM 73.4 °F - 62.6 °F 69% 29.99 in 6.2 mi NNW 4.6 mph - N/A   Partly Cloudy
9:00 PM 73.4 °F - 64.4 °F 73% 30.00 in 6.2 mi NNW 2.3 mph - N/A   Partly Cloudy
10:00 PM 73 °F - 68 °F 78% 30.01 in 9 mi Calm Calm - -   Scattered Clouds
10:00 PM 73.4 °F - 68.0 °F 83% 30.01 in 6.2 mi Calm Calm - N/A   Partly Cloudy
11:00 PM 69.8 °F - 62.6 °F 78% 30.00 in 6.2 mi Calm Calm - N/A   Scattered Clouds